Bellingham, WA

12:07 PM PDT on September 25, 2016 (GMT -0700)
Bellingham International

Weather History for KBLI - March, 2014

Change the Weather History Date:

Sunday, March 2, 2014

  Actual Average Record
Temperature  
Mean Temperature 32 °F 42 °F  
Max Temperature 34 °F 50 °F 61 °F (1990)
Min Temperature 30 °F 34 °F 20 °F (1989)
Degree Days  
Heating Degree Days 33 23  
Month to date heating degree days 63 46  
Cooling Degree Days 0 0  
Month to date cooling degree days 0 0  
Year to date cooling degree days 0 0  
Moisture  
Dew Point 29 °F    
Average Humidity 87    
Maximum Humidity 96    
Minimum Humidity 78    
Precipitation  
Precipitation 0.62 in 0.11 in 0.62 in (2014)
Month to date precipitation 0.62 0.22  
Year to date precipitation 6.20 7.91  
Sea Level Pressure  
Sea Level Pressure 29.65 in    
Wind  
Wind Speed 8 mph (North)    
Max Wind Speed 14 mph    
Max Gust Speed 18 mph    
Visibility 6 miles    
Events Rain , Snow    
T = Trace of Precipitation, MM = Missing Value Source: NWS Daily Summary

Daily Weather History Graph

Daily Weather History Graph

Search for Another Location

Airport or City:

Trip Planner

Search our weather history database for the weather conditions in past years. The results will help you decide how hot, cold, wet, or windy it might be!

Date:

Astronomy

Mar. 02, 2014 Rise Set
Actual Time 6:49 AM PST 5:55 PM PST
Civil Twilight 6:18 AM PST 6:27 PM PST
Nautical Twilight 5:41 AM PST 7:03 PM PST
Astronomical Twilight 5:05 AM PST 7:40 PM PST
Moon 7:13 AM PST (3/2) 8:11 PM PST (3/2)
Length of Visible Light 12h 08m
Length of Day
11h 05m
Waxing Crescent, 3% of the Moon is Illuminated
Mar 2
Waxing Crescent
Mar 8
First Quarter
Mar 16
Full
Mar 23
Last Quarter
Mar 30
New

Hourly Weather History & Observations

Time (PST) Temp. Windchill Dew Point Humidity Pressure Visibility Wind Dir Wind Speed Gust Speed Precip Events Conditions
12:04 AM 30.9 °F 22.8 °F 27.0 °F 85% 29.69 in 2.5 mi NNE 9.2 mph - 0.00 in Snow Light Snow
12:22 AM 30.9 °F 23.5 °F 27.0 °F 85% 29.69 in 7.0 mi NNE 8.1 mph - 0.00 in Snow Light Snow
12:53 AM 30.9 °F 24.3 °F 27.0 °F 85% 29.74 in 10.0 mi NNE 6.9 mph - 0.00 in   Overcast
1:53 AM 32.0 °F 24.2 °F 26.1 °F 79% 29.74 in 10.0 mi NNE 9.2 mph - 0.00 in   Overcast
2:53 AM 30.9 °F 21.7 °F 26.1 °F 82% 29.73 in 9.0 mi NNE 11.5 mph - 0.00 in   Overcast
3:53 AM 30.9 °F 22.8 °F 27.0 °F 85% 29.73 in 3.0 mi North 9.2 mph - N/A   Overcast
4:01 AM 30.0 °F 21.1 °F 27.0 °F 88% 29.70 in 3.0 mi North 10.4 mph - 0.00 in Rain Light Freezing Rain
4:09 AM 30.0 °F 20.0 °F 27.0 °F 88% 29.70 in 2.5 mi North 12.7 mph - 0.00 in Rain Light Freezing Rain
4:25 AM 30.0 °F 21.1 °F 27.0 °F 88% 29.70 in 2.5 mi North 10.4 mph - 0.00 in Rain Light Freezing Rain
4:35 AM 30.0 °F 20.5 °F 28.0 °F 92% 29.70 in 3.0 mi North 11.5 mph - 0.00 in Rain Light Freezing Rain
4:53 AM 30.0 °F 20.5 °F 28.0 °F 92% 29.73 in 2.5 mi North 11.5 mph - 0.00 in Rain Light Freezing Rain
5:01 AM 30.9 °F 22.8 °F 28.0 °F 89% 29.70 in 3.0 mi NNE 9.2 mph - 0.00 in Rain Light Freezing Rain
5:53 AM 30.9 °F 22.8 °F 28.0 °F 89% 29.71 in 6.0 mi NNE 9.2 mph - 0.00 in Rain Light Freezing Rain
6:12 AM 30.9 °F 22.2 °F 28.0 °F 89% 29.67 in 4.0 mi NNE 10.4 mph - 0.00 in Rain Light Freezing Rain
6:25 AM 30.9 °F 21.7 °F 28.9 °F 92% 29.67 in 5.0 mi NNE 11.5 mph 16.1 mph 0.00 in Rain Light Freezing Rain
6:48 AM - - - N/A% 29.66 in 5.0 mi North 9.2 mph - N/A Rain Light Rain
6:53 AM 30.9 °F 23.5 °F 28.9 °F 92% 29.69 in 6.0 mi NNE 8.1 mph - 0.00 in Rain Light Freezing Rain
7:06 AM 32.0 °F 24.8 °F 28.9 °F 88% 29.66 in 7.0 mi NNE 8.1 mph - 0.00 in Rain Light Freezing Rain
7:48 AM - - - N/A% 29.66 in 4.0 mi North 10.4 mph - N/A Rain Light Rain
7:53 AM 32.0 °F 25.6 °F 28.9 °F 88% 29.69 in 2.5 mi North 6.9 mph - 0.03 in Rain Light Freezing Rain
8:30 AM 30.9 °F 23.5 °F 28.9 °F 92% 29.66 in 3.0 mi North 8.1 mph - 0.01 in   Overcast
8:48 AM 30.2 °F 21.9 °F 28.4 °F 93% 29.66 in 2.5 mi North 9.2 mph - 0.01 in   Overcast
8:49 AM - - - N/A% 29.66 in 3.0 mi North 6.9 mph - N/A   Mostly Cloudy
8:53 AM 30.9 °F 23.5 °F 28.9 °F 92% 29.69 in 2.5 mi NNE 8.1 mph - 0.01 in   Overcast
9:06 AM 32.0 °F 23.6 °F 28.9 °F 88% 29.66 in 2.5 mi NNE 10.4 mph - 0.00 in Rain Light Freezing Rain
9:20 AM 32.0 °F 24.2 °F 30.0 °F 92% 29.65 in 3.0 mi NNE 9.2 mph - 0.00 in   Overcast
9:47 AM - - - N/A% 29.65 in 2.5 mi North 12.7 mph - N/A   Mostly Cloudy
9:53 AM 32.0 °F 23.0 °F 28.9 °F 88% 29.68 in 2.5 mi NNE 11.5 mph - 0.00 in   Overcast
10:06 AM 32.0 °F 24.2 °F 28.9 °F 88% 29.64 in 2.5 mi NNE 9.2 mph - 0.00 in Rain Light Freezing Rain
10:16 AM 32.0 °F 24.2 °F 28.9 °F 88% 29.64 in 4.0 mi NNE 9.2 mph - 0.00 in Rain Light Freezing Rain
10:45 AM - - - N/A% 29.64 in 6.0 mi North 10.4 mph - N/A   Mostly Cloudy
10:53 AM 32.0 °F 24.2 °F 28.9 °F 88% 29.68 in 10.0 mi NNE 9.2 mph - 0.01 in   Overcast
11:06 AM 32.0 °F 24.8 °F 28.9 °F 88% 29.64 in 10.0 mi North 8.1 mph - 0.00 in   Overcast
11:27 AM 32.0 °F 24.2 °F 28.9 °F 88% 29.64 in 9.0 mi NNE 9.2 mph - 0.01 in Rain Light Freezing Rain
11:48 AM 32.0 °F 24.2 °F 28.4 °F 87% 29.63 in 9.0 mi North 9.2 mph - 0.02 in Rain Light Freezing Rain
11:53 AM 32.0 °F 24.2 °F 28.9 °F 88% 29.66 in 9.0 mi NNE 9.2 mph - 0.02 in   Overcast
12:25 PM 32.0 °F 23.6 °F 30.0 °F 92% 29.61 in 8.0 mi NNE 10.4 mph - 0.03 in   Overcast
12:53 PM 33.1 °F 26.1 °F 30.0 °F 89% 29.63 in 8.0 mi North 8.1 mph - 0.05 in Rain Light Rain
1:53 PM 32.0 °F 24.2 °F 30.0 °F 92% 29.61 in 3.0 mi North 9.2 mph - 0.03 in Rain Light Rain
2:10 PM 33.1 °F 26.1 °F 30.0 °F 89% 29.58 in 4.0 mi North 8.1 mph - 0.01 in Rain Light Rain
2:40 PM 33.1 °F 26.1 °F 30.0 °F 89% 29.57 in 8.0 mi North 8.1 mph - 0.04 in Rain Light Rain
2:53 PM 33.1 °F 25.5 °F 30.0 °F 89% 29.59 in 10.0 mi NNE 9.2 mph - 0.05 in Rain Light Rain
2:58 PM 33.1 °F 25.5 °F 30.0 °F 89% 29.56 in 10.0 mi NNE 9.2 mph - 0.00 in Rain Light Freezing Rain
3:51 PM 33.8 °F 27.7 °F 30.2 °F 87% 29.55 in 10.0 mi North 6.9 mph - 0.03 in Rain Light Rain
3:53 PM 33.1 °F 26.1 °F 30.9 °F 92% 29.57 in 10.0 mi North 8.1 mph - 0.03 in Rain Light Rain
4:53 PM 33.1 °F 26.9 °F 30.0 °F 89% 29.57 in 10.0 mi NNW 6.9 mph - 0.04 in   Overcast
5:18 PM 33.1 °F 26.9 °F 30.0 °F 89% 29.54 in 9.0 mi North 6.9 mph - 0.02 in Rain Light Rain
5:53 PM 33.1 °F 26.1 °F 30.0 °F 89% 29.57 in 9.0 mi North 8.1 mph - 0.06 in Rain Light Rain
6:53 PM 33.1 °F 27.7 °F 30.9 °F 92% 29.58 in 7.0 mi North 5.8 mph - 0.08 in Rain Light Rain
7:15 PM 33.1 °F 27.7 °F 30.9 °F 92% 29.55 in 8.0 mi North 5.8 mph - 0.03 in Rain Light Rain
7:53 PM 33.1 °F 26.9 °F 30.9 °F 92% 29.60 in 6.0 mi North 6.9 mph - 0.07 in Rain Light Rain
8:53 PM 33.1 °F 28.7 °F 32.0 °F 96% 29.62 in 6.0 mi North 4.6 mph - 0.10 in Rain Light Rain
9:04 PM 34.0 °F 31.0 °F 32.0 °F 92% 29.59 in 8.0 mi NNE 3.5 mph - 0.00 in Rain Light Rain
9:50 PM 33.8 °F 30.8 °F 30.2 °F 87% 29.61 in 6.0 mi North 3.5 mph - 0.02 in Rain Light Rain
9:53 PM 34.0 °F - 30.9 °F 89% 29.65 in 7.0 mi Calm Calm - 0.02 in Rain Light Rain
10:53 PM 33.1 °F 30.0 °F 30.9 °F 92% 29.67 in 10.0 mi North 3.5 mph - 0.00 in   Overcast
11:42 PM 34.0 °F - 32.0 °F 92% 29.66 in 8.0 mi Calm Calm - 0.02 in Rain Light Rain
11:53 PM 34.0 °F - 32.0 °F 92% 29.69 in 8.0 mi Calm Calm - 0.02 in Rain Light Rain